Location: Casper
(42.8670°N, 106.3130°W)
Time: 18:42:29
(UTC-06:00)

Daily predictions for brighter satellites

Satellite Brightness Start Highest point End
(mag) Time Altitude Azimuth Time Altitude Azimuth Time Altitude Azimuth
Cosmos 1821 Rocket 4.1 19:40:58 10° S 19:47:19 74° E 19:53:39 10° NNE
COSMOS 2406 4.4 19:46:02 10° NW 19:51:32 48° WSW 19:56:59 10° S
Cosmos 1766 3.4 19:48:06 10° S 19:51:51 52° E 19:55:39 10° NNE
Resurs 01 Rocket 2.1 19:48:38 10° SE 19:52:46 41° ENE 19:56:56 10° N
Meteor 2-5 Rocket 4.4 19:48:37 10° NNW 19:54:18 65° W 20:00:03 10° S
Cosmos 1125 Rocket 4.3 19:50:37 10° SSE 19:54:57 28° E 19:59:19 10° NE
Cosmos 1844 4.1 19:53:17 10° SSW 19:59:02 75° WNW 20:04:52 10° NNE
Lacrosse 5 rocket 3.0 19:56:01 10° NNW 19:59:04 20° NNE 20:01:58 10° ENE
HJ-1C 3.4 20:00:00 10° SSE 20:03:22 72° ENE 20:06:48 10° N
Cosmos 1674 4.2 20:01:21 10° NNE 20:04:06 19° ENE 20:06:50 10° ESE
Cosmos 1605 Rocket 4.1 19:59:21 10° SSE 20:05:26 56° E 20:11:39 10° NNE
SeaSat 1 2.5 20:04:34 10° SSE 20:09:30 88° WSW 20:14:28 10° NNW
SL-27 R/B 3.1 20:06:26 10° NNW 20:09:59 60° WSW 20:13:33 10° S
RESURS DK-1 3.1 20:10:12 10° NW 20:14:16 56° WSW 20:18:18 10° S
Cosmos 1937 Rocket 4.3 20:09:11 10° SW 20:14:20 56° WNW 20:19:34 10° NNE
OE (NEXTSAT) 4.4 20:14:45 10° WSW 20:18:22 90° WNW 20:21:35 13° ENE
Cosmos 2123 Rocket 4.1 20:12:11 10° N 20:18:33 89° ENE 20:24:50 10° S
CZ-2D R/B 3.4 20:15:28 10° SSE 20:19:14 55° ENE 20:23:03 10° N
Meteor 1-29 4.3 20:16:57 10° NE 20:19:36 20° E 20:22:08 11° SE
Cosmos 1805 3.2 20:19:54 10° S 20:23:44 64° E 20:27:37 10° NNE
COSMOS 2487 3.1 20:21:44 10° N 20:25:05 36° ENE 20:27:14 18° SE
Meteor 1-21 Rocket 4.4 20:20:11 10° N 20:25:55 55° ENE 20:31:41 10° SSE
In-Cosmos 22 4.1 20:22:08 10° N 20:27:28 85° W 20:32:44 10° S
BREEZE-M DEB (TANK) 3.1 20:27:01 10° SW 20:29:50 74° SE 20:37:28 10° ENE
Cosmos 1818 3.5 20:24:50 10° NNW 20:30:19 82° ENE 20:35:22 12° SE
ALOS 3.2 20:27:12 10° S 20:31:44 51° W 20:36:19 10° NNW
Resurs 1-3 3.6 20:28:34 10° SSE 20:32:57 88° W 20:37:22 10° NNW
Meteor 1-4 Rocket 2.3 20:30:38 10° S 20:34:05 65° E 20:37:33 10° NNE
Cosmos 1269 Rocket 4.0 20:31:19 10° NNW 20:36:35 65° ENE 20:41:18 13° SSE
Cosmos 1153 Rocket 4.5 20:32:32 10° S 20:38:53 70° E 20:45:16 10° NNE
Cosmos 1470 3.3 20:36:13 10° SSE 20:39:52 35° E 20:43:31 10° NNE
Cosmos 1408 Rocket 3.7 20:36:47 10° N 20:41:11 55° E 20:44:55 14° SSE
Cosmos 2061 Rocket 4.4 20:36:39 10° SSE 20:42:31 41° E 20:48:28 10° NNE
Cosmos 1544 3.3 20:39:01 10° SSW 20:42:39 72° W 20:46:20 10° N
Cosmos 1833 Rocket 2.7 20:37:40 10° NNW 20:43:16 64° ENE 20:47:24 18° SE
Timation 1 Rocket 4.3 20:38:06 10° SSW 20:44:05 83° ESE 20:50:09 10° NNE
CZ-4B DEB 3.0 20:44:38 35° ESE 20:45:26 45° ENE 20:48:26 10° N
Timation 2 Rocket 4.0 20:39:51 10° NNW 20:46:10 63° ENE 20:50:27 20° SE
Cosmos 1340 Rocket 3.3 20:42:50 10° N 20:46:38 38° ENE 20:47:49 30° ESE
Cosmos 1733 3.5 20:45:51 17° SSE 20:48:31 42° E 20:52:12 10° NNE
Cosmos 2278 Rocket 3.1 20:44:23 10° SW 20:49:55 52° WNW 20:55:28 10° NNE
Spot 1 4.2 20:46:13 10° SSE 20:50:52 84° ENE 20:55:49 10° NNW
ISS -2.5 20:49:08 10° SSW 20:51:09 25° SSE 20:51:09 25° SSE
Cosmos 372 Rocket 3.8 20:47:02 10° S 20:52:05 68° ESE 20:57:13 10° NNE
Cosmos 2344 4.3 20:45:30 10° SW 20:53:04 60° NW 21:01:52 10° NNE
CZ-3B DEB 3.5 20:44:24 10° WSW 20:54:25 51° NW 20:59:05 10° NE
Cosmos 2098 Rocket 4.4 20:47:13 10° S 20:54:29 90° W 21:02:09 10° N
Tiangong 1 3.7 20:55:42 10° SW 20:56:16 10° SW 20:56:49 10° SSW
Abrixas 3.3 20:55:11 10° WNW 20:57:50 37° SW 20:58:13 35° SSW
H-2A R/B 4.5 20:54:26 10° SSW 20:58:00 34° W 21:01:38 10° NNW
Cosmos 1459 Rocket 4.0 20:52:51 10° S 20:58:58 59° E 21:05:01 10° NNE
Cosmos 158 Rocket 3.9 20:53:53 10° NNW 20:59:02 84° ENE 21:02:37 21° SSE
Cosmos 2151 4.4 20:57:12 10° NNE 20:59:52 21° ENE 20:59:52 21° ENE
ATLAS 5 CENTAUR R/B 1.8 20:56:08 10° SSW 21:00:42 57° ESE 21:05:41 10° NE
Cosmos 2173 Rocket 3.9 20:58:44 10° S 21:04:48 64° E 21:11:00 10° NNE
USA 215 3.4 20:58:29 10° ENE 21:04:48 49° SE 21:11:04 10° SSW
Cosmos 2297 3.8 21:00:04 10° SSW 21:05:47 81° WNW 21:11:34 10° NNE
Cosmos 1867 3.6 21:01:23 10° SW 21:06:50 84° WNW 21:12:21 10° NNE
BREEZE-M DEB (TANK) 3.4 21:04:53 10° SW 21:08:26 56° SE 21:20:14 10° ENE
Helios 1B rocket 2.5 21:04:27 10° N 21:08:35 77° WNW 21:12:41 10° SSW
Cosmos 1076 Rocket 4.4 21:05:56 10° NNW 21:10:01 48° W 21:14:06 10° SSW
USA 186 3.1 21:11:28 23° WSW 21:11:42 24° W 21:13:35 10° NW
SL-14 R/B 4.2 21:10:50 10° N 21:13:33 32° NE 21:13:33 32° NE
Cosmos 494 Rocket 4.3 21:11:46 10° N 21:16:41 44° ENE 21:17:23 42° E
Cosmos 1953 3.8 21:13:05 10° SSW 21:16:53 38° WNW 21:20:43 10° N
Cosmos 1328 4.3 21:13:30 10° N 21:16:49 44° NE 21:16:49 44° NE
Lacrosse 5 3.4 21:14:04 10° W 21:18:40 33° NNW 21:23:16 10° NE
Cosmos 2082 Rocket 2.6 21:13:39 10° NNW 21:19:17 61° WSW 21:23:04 21° S
SWAS 4.5 21:15:47 10° SSW 21:20:05 79° WNW 21:24:25 10° NNE
Cosmos 1939 Rocket 2.9 21:21:27 48° S 21:22:34 84° WSW 21:26:45 10° NNW
GP-B 3.9 21:19:01 10° SSW 21:23:20 51° W 21:27:41 10° NNW
Helios 1A 4.1 21:20:02 13° SSW 21:23:31 41° W 21:27:30 10° NNW
SPOT 5 3.8 21:24:16 35° ENE 21:24:19 35° ENE 21:29:08 10° N
Cosmos 1271 Rocket 3.1 21:21:03 10° SSW 21:25:01 66° W 21:29:03 10° N
Envisat 3.2 21:23:11 24° S 21:26:18 71° WSW 21:31:24 10° NNW
Meteor 1-16 Rocket 4.3 21:26:07 35° SSE 21:28:28 60° E 21:34:18 10° NNE
Meteor 2-17 Rocket 4.3 21:24:05 18° S 21:28:44 70° E 21:34:51 10° NNE
Resurs 01 Rocket 4.2 21:26:14 10° SW 21:29:24 19° W 21:32:36 10° NW
Cosmos 1184 Rocket 4.0 21:26:13 10° N 21:28:24 37° N 21:28:24 37° N
MetOp-A 4.3 21:31:24 49° E 21:31:43 49° ENE 21:36:53 10° N
H-2A R/B 3.5 21:33:28 23° NE 21:33:28 23° NE 21:36:47 10° NNE
ARGOS 3.8 21:33:03 37° ENE 21:33:03 37° ENE 21:37:41 10° N
Cosmos 2016 Rocket 3.8 21:31:28 16° S 21:36:34 81° E 21:42:45 10° N
Cosmos-2242 4.0 21:33:04 10° SSW 21:37:08 45° WNW 21:41:14 10° N
USA 267 4.0 21:35:29 31° ENE 21:37:55 42° NNE 21:43:58 10° NW
Lacrosse 5 rocket 1.6 21:34:50 10° NW 21:38:08 60° WNW 21:38:08 60° WNW
Terra 4.1 21:43:38 13° NE 21:43:38 13° NE 21:44:33 10° NNE
ERS-1 Rocket 2.9 21:43:22 67° S 21:44:04 88° W 21:49:08 10° NNW
YAOGAN 6 3.6 21:45:19 45° NNW 21:45:19 45° NNW 21:47:59 10° NNW
Cosmos 1725 Rocket 3.9 21:43:44 56° SE 21:44:47 65° E 21:50:56 10° NNE
Cosmos 1743 Rocket 4.5 21:53:26 10° NNW 21:57:40 45° W 21:58:14 42° WSW
H-2A R/B 4.4 22:00:43 14° NNE 22:00:43 14° NNE 22:01:25 10° NNE
Cosmos 1500 Rocket 4.1 21:55:11 10° NNW 21:58:56 54° WNW 21:58:56 54° WNW
Cosmos 1356 Rocket 4.4 21:57:15 10° NNW 22:00:21 44° NW 22:00:21 44° NW
Tsikada Rocket 3.8 21:55:31 10° N 22:01:46 84° E 22:02:21 74° SSE
Cosmos 2369 Rocket 4.3 22:16:36 14° NE 22:16:36 14° NE 22:17:25 10° NNE
Cosmos 2251 Rocket 3.9 22:09:35 10° NNW 22:14:41 58° W 22:14:41 58° W
SPOT 1/Viking Rocket 4.3 22:17:42 45° N 22:17:42 45° N 22:21:24 10° N
ATLAS 5 CENTAUR R/B 4.0 22:41:47 10° W 22:45:46 25° NW 22:50:05 10° NNE
USA 215 3.8 22:41:30 10° NE 22:47:51 55° NNW 22:54:10 10° WSW
Lacrosse 5 4.3 22:59:45 10° NW 23:03:01 17° N 23:03:51 16° N
CZ-3B DEB 4.3 23:03:51 10° NW 23:06:38 15° NNW 23:06:38 15° NNW
H-2A R/B 3.8 23:14:06 30° NW 23:14:06 30° NW 23:16:54 10° NNW
Terra 4.3 23:22:31 18° NNW 23:22:31 18° NNW 23:23:46 10° NNW
USA 267 4.1 23:22:50 45° WNW 23:22:50 45° WNW 23:27:13 10° NW
